[[{"header":{"parameterUnit":"m.s-1","parameterCategory":1,"la1":30.2991,"la2":30.254,"lo1":-89.0895,"lo2":-89.0444,"dy":0.0017,"dx":0.0017,"nx":28,"ny":28,"refTime":"2024-07-13T03:00:00:Z","depth":0,"parameterNumber":2,"parameterNumberName":"U-component_of_WINDS"},"data":[0,0,0,0,0,0,0,0,0,0,0,0,0,0,0,0,0,0,0,0,0,0,0,0,0,0,0,0,0,0,0,0,0,0,0,0,0,0,0,0,0,0,0,0,0,0,0,0,0,0,0,0,0,0,0,0,0,0,1.0808,1.0808,0,1.0847,1.0847,1.0848,1.0839,1.0839,1.0838,1.0837,1.0878,1.0879,1.0881,0,0,0,0,0,0,0,0,0,0,0,0,0,1.0728,1.0729,1.0808,1.0808,1.0809,1.0847,1.0847,1.0848,1.0839,1.0839,1.0838,1.0837,1.0877,1.0879,1.0881,0,0,0,0,0,0,0,0,0,0,0,0,0,1.0764,1.073,1.0808,1.0809,1.081,1.0847,1.0847,1.0848,1.084,1.0839,1.0837,1.0836,1.0876,1.0879,1.0882,1.092,0,0,1.089,1.0891,0,0,0,0,0,0,0,0,1.0762,1.0767,1.0809,1.0809,1.081,1.0837,1.0834,1.0872,1.084,1.0828,1.0837,1.0836,1.0865,1.0869,1.0878,1.0922,1.0923,1.089,1.0891,1.0893,1.0893,0,0,0,0,0,0,0,1.076,1.0766,1.0823,1.0809,1.081,1.0808,1.0812,1.0841,1.0852,1.0829,1.0829,1.0833,1.0865,1.0876,1.0879,1.0924,1.089,1.0892,1.0894,1.0895,1.1002,1.1003,0,0,0,0,0,0,1.0756,1.0763,1.0822,1.0824,1.0783,1.0811,1.0815,1.0829,1.0852,1.0854,1.0834,1.0833,1.0872,1.0876,1.0881,1.0928,1.0893,1.0895,1.0897,1.1001,1.1002,1.1004,0,0,0,0,0,0,1.0755,1.0762,1.082,1.0794,1.0801,1.0813,1.0829,1.0831,1.0841,1.0856,1.0858,1.0843,1.0871,1.0877,1.091,1.0929,1.0896,1.0899,1.0999,1.1001,1.1003,1.1022,0,0,0,0,0,0,1.0752,1.0761,1.0775,1.0794,1.0803,1.0849,1.083,1.0832,1.0846,1.0844,1.0864,1.0867,1.0871,1.0906,1.0913,1.0932,1.0901,1.0998,1.1,1.1002,1.102,1.1024,1.1028,0,0,0,0,0,1.075,1.0779,1.0776,1.0783,1.0821,1.085,1.0855,1.0859,1.0847,1.0862,1.0872,1.0866,1.0926,1.091,1.0917,1.0937,1.0997,1.1,1.1002,1.1018,1.1023,1.1028,0,0,0,0,0,0,1.0762,1.0781,1.0778,1.0815,1.0831,1.0849,1.0867,1.0864,1.0884,1.0882,1.0886,1.0891,1.0925,1.0935,1.0916,1.0976,1.096,1.0964,1.0969,1.0974,1.0978,1.0976,1.0903,0,0,0,0,0,1.0769,1.0791,1.0807,1.0837,1.0845,1.0855,1.0868,1.087,1.0887,1.0894,1.0905,1.0923,1.0945,1.096,1.0982,1.1021,1.1026,1.1038,1.1043,1.1046,1.105,1.1073,1.1079,1.1013,1.1013,1.1013,0,0,1.0783,1.0796,1.081,1.084,1.0853,1.0876,1.0861,1.0886,1.0904,1.0897,1.093,1.094,1.0959,1.0996,1.1013,1.1005,1.1069,1.105,1.1052,1.1054,1.1076,1.1083,1.1088,1.1015,1.1015,1.1014,0,0,1.0821,1.0833,1.0861,1.0874,1.0894,1.09,1.0907,1.0925,1.0931,1.0964,1.096,1.0982,1.102,1.1035,1.1047,1.1093,1.1089,1.11,1.1122,1.1144,1.1149,1.1154,1.1171,1.1177,1.1103,1.1104,1.1104,0,1.0837,1.0872,1.0875,1.0901,1.0915,1.091,1.0939,1.0951,1.0977,1.0987,1.0978,1.1027,1.104,1.1081,1.1092,1.1102,1.111,1.1098,1.1148,1.1153,1.1157,1.1174,1.118,1.1105,1.1105,1.1104,1.1104,0,1.0891,1.0915,1.0935,1.096,1.0976,1.1003,1.1011,1.1027,1.1027,1.1035,1.1069,1.1084,1.1109,1.1119,1.112,1.116,1.1155,1.1147,1.113,1.1165,1.118,1.1187,1.1107,1.1106,1.1106,1.1105,0,0,1.0937,1.0965,1.0972,1.0984,1.1006,1.1025,1.1052,1.1077,1.1091,1.1109,1.1133,1.1167,1.116,1.1174,1.1176,1.1195,1.1232,1.1185,1.1185,1.1194,1.1279,1.1286,1.1293,1.1229,1.123,1.1231,1.1278,0,1.0979,1.1026,1.1031,1.1074,1.1097,1.1094,1.1118,1.1134,1.1142,1.1164,1.1173,1.1197,1.1185,1.1194,1.1213,1.1223,1.1249,1.122,1.1252,1.1253,1.1248,1.1301,1.1308,1.1351,1.1284,1.1285,1.1286,0,1.1033,1.1053,1.1099,1.1119,1.1129,1.115,1.1174,1.1194,1.1213,1.1218,1.1234,1.1234,1.1263,1.1245,1.1286,1.1266,1.1279,1.1287,1.1288,1.1292,1.1272,1.1307,1.1365,1.1371,1.1295,1.1294,1.1294,0,1.1064,1.1103,1.1135,1.1146,1.1169,1.1184,1.1195,1.1213,1.1228,1.1249,1.1259,1.1283,1.1296,1.1315,1.1322,1.1308,1.1363,1.1345,1.1368,1.1368,1.138,1.138,1.1442,1.1388,1.1388,1.1388,1.1387,0,1.111,1.1139,1.115,1.117,1.1202,1.1207,1.1239,1.1248,1.1265,1.1287,1.1286,1.1307,1.1314,1.1337,1.1343,1.1376,1.1382,1.1387,1.1389,1.1388,1.1388,1.1397,1.1395,1.1389,1.1389,1.1389,1.1388,0,1.1151,1.1159,1.1195,1.1214,1.122,1.1243,1.126,1.128,1.1288,1.1317,1.1324,1.1336,1.1363,1.1372,1.1404,1.1408,1.1448,1.1446,1.1441,1.1442,1.1465,1.1463,1.1536,1.1546,1.1485,1.1485,1.1486,0,1.118,1.1202,1.1224,1.1239,1.125,1.1274,1.129,1.1296,1.1312,1.1336,1.1353,1.138,1.1402,1.1445,1.1458,1.1483,1.1482,1.1506,1.1486,1.1485,1.1484,1.1483,1.1486,1.151,1.1511,1.1511,1.1512,0,1.1231,1.1235,1.1257,1.1281,1.13,1.1319,1.1338,1.135,1.1359,1.1378,1.1405,1.1422,1.1456,1.1483,1.1508,1.152,1.1518,1.1518,1.1525,1.1525,1.1522,1.1525,1.1453,1.1516,1.1516,1.1516,1.1515,1.1515,1.1268,1.1287,1.1306,1.1332,1.1346,1.1364,1.1384,1.1395,1.1418,1.1446,1.1448,1.1478,1.1498,1.1532,1.1545,1.1569,1.1563,1.1572,1.1575,1.1577,1.158,1.1517,1.1574,1.1574,1.1574,1.1574,1.1574,0,1.132,1.1332,1.1355,1.1382,1.1402,1.1398,1.1419,1.1436,1.1462,1.1481,1.1502,1.1535,1.1561,1.1576,1.1603,1.1619,1.1619,1.1626,1.1625,1.1628,1.1584,1.1576,1.1626,1.1626,1.1626,1.1626,1.1626,1.1626,1.135,1.1383,1.1389,1.143,1.1442,1.1472,1.1484,1.1501,1.1516,1.1552,1.1574,1.1583,1.1601,1.1629,1.1653,1.1657,1.1667,1.1675,1.1679,1.1637,1.1631,1.1626,1.1619,1.1677,1.1677,1.1721,1.1722,1.1722]},{"header":{"parameterUnit":"m.s-1","parameterCategory":1,"la1":30.2991,"la2":30.254,"lo1":-89.0895,"lo2":-89.0444,"dy":0.0017,"dx":0.0017,"nx":28,"ny":28,"refTime":"2024-07-13T03:00:00:Z","depth":0,"parameterNumber":3,"parameterNumberName":"V-component_of_WINDS"},"data":[0,0,0,0,0,0,0,0,0,0,0,0,0,0,0,0,0,0,0,0,0,0,0,0,0,0,0,0,0,0,0,0,0,0,0,0,0,0,0,0,0,0,0,0,0,0,0,0,0,0,0,0,0,0,0,0,0,0,0.0701,0.0701,0,0.0734,0.0734,0.0734,0.0758,0.0758,0.0758,0.0758,0.0792,0.0793,0.0794,0,0,0,0,0,0,0,0,0,0,0,0,0,0.0658,0.0658,0.0701,0.0701,0.0701,0.0733,0.0734,0.0734,0.0758,0.0758,0.0758,0.0758,0.0792,0.0793,0.0794,0,0,0,0,0,0,0,0,0,0,0,0,0,0.0682,0.0658,0.0701,0.0717,0.0719,0.0733,0.0734,0.0734,0.0758,0.0758,0.0758,0.0759,0.0792,0.0793,0.0794,0.0795,0,0,0.0797,0.0798,0,0,0,0,0,0,0,0,0.0681,0.0684,0.0714,0.0716,0.0718,0.0742,0.0731,0.0755,0.0758,0.0743,0.0758,0.0759,0.0775,0.0778,0.0783,0.0796,0.0798,0.0797,0.0798,0.0798,0.0799,0,0,0,0,0,0,0,0.0679,0.0682,0.0714,0.0715,0.0717,0.0723,0.0726,0.0736,0.0757,0.0744,0.0746,0.075,0.0776,0.0782,0.0784,0.0798,0.0797,0.0798,0.0799,0.0799,0.0813,0.0812,0,0,0,0,0,0,0.0675,0.0681,0.0713,0.0715,0.07,0.0723,0.0727,0.0734,0.0757,0.0761,0.0749,0.0751,0.078,0.0783,0.0785,0.0787,0.0798,0.0799,0.08,0.0813,0.0813,0.0812,0,0,0,0,0,0,0.0674,0.0677,0.0711,0.0698,0.0703,0.0724,0.0731,0.0734,0.074,0.0761,0.0765,0.0751,0.078,0.0784,0.0792,0.0789,0.08,0.0801,0.0813,0.0813,0.0813,0.0792,0,0,0,0,0,0,0.0672,0.0677,0.0677,0.0698,0.0704,0.0717,0.0731,0.0735,0.0742,0.0744,0.0764,0.0767,0.0781,0.079,0.0793,0.0791,0.0802,0.0814,0.0813,0.0813,0.0793,0.079,0.0789,0,0,0,0,0,0.0671,0.0671,0.0677,0.0681,0.0705,0.0717,0.072,0.0736,0.0742,0.0742,0.0755,0.0767,0.0789,0.0791,0.0794,0.0792,0.0814,0.0813,0.0813,0.0793,0.0791,0.0789,0,0,0,0,0,0,0.0649,0.0674,0.0681,0.0688,0.07,0.0721,0.0723,0.0733,0.0744,0.0745,0.0764,0.0768,0.0774,0.0784,0.0786,0.0794,0.0803,0.0803,0.0787,0.0785,0.0783,0.078,0.0803,0,0,0,0,0,0.0645,0.0653,0.0674,0.0678,0.0684,0.0702,0.0708,0.0719,0.0732,0.0738,0.0751,0.0764,0.0774,0.078,0.079,0.0794,0.0798,0.0794,0.0792,0.079,0.079,0.0792,0.079,0.081,0.081,0.081,0,0,0.0637,0.0652,0.0656,0.0674,0.0685,0.0692,0.0706,0.0714,0.0719,0.0739,0.0747,0.0757,0.0773,0.0779,0.0782,0.0787,0.0786,0.079,0.0788,0.0789,0.0791,0.0789,0.0788,0.081,0.081,0.081,0,0,0.0626,0.0638,0.0642,0.0653,0.0669,0.0681,0.0681,0.0701,0.0708,0.0717,0.0731,0.0738,0.0755,0.0765,0.0772,0.0764,0.0774,0.0767,0.0756,0.0758,0.0756,0.0755,0.0751,0.075,0.0766,0.0766,0.0766,0,0.0614,0.0626,0.0643,0.0649,0.0657,0.0674,0.0678,0.0687,0.0706,0.0711,0.0716,0.0736,0.0748,0.0756,0.0754,0.076,0.0761,0.0764,0.0755,0.0754,0.0753,0.075,0.0748,0.0765,0.0765,0.0765,0.0766,0,0.061,0.0618,0.062,0.0637,0.0644,0.0649,0.0666,0.0672,0.0682,0.0693,0.0701,0.0716,0.0729,0.0732,0.0742,0.0741,0.0743,0.0752,0.0761,0.075,0.0747,0.0746,0.0764,0.0764,0.0764,0.0765,0,0,0.0587,0.0613,0.0613,0.062,0.0639,0.0646,0.0651,0.0664,0.0668,0.068,0.0685,0.0698,0.0705,0.0714,0.0725,0.0726,0.0718,0.0735,0.0735,0.073,0.0717,0.071,0.0708,0.0725,0.0725,0.0725,0.0715,0,0.0579,0.059,0.0604,0.061,0.0618,0.0634,0.0639,0.065,0.0661,0.0668,0.068,0.0689,0.0699,0.0704,0.0706,0.0718,0.0715,0.0719,0.0729,0.0729,0.0724,0.0707,0.07,0.069,0.0714,0.0714,0.0714,0,0.057,0.0581,0.0587,0.0605,0.0608,0.0612,0.0624,0.0631,0.0645,0.0652,0.0661,0.0673,0.0679,0.0688,0.0697,0.0699,0.0704,0.071,0.071,0.0712,0.0721,0.0707,0.0688,0.0686,0.0713,0.0713,0.0713,0,0.0552,0.0568,0.0574,0.058,0.06,0.0602,0.0611,0.0625,0.0631,0.0641,0.0645,0.0657,0.0663,0.0671,0.0685,0.069,0.0692,0.0702,0.0698,0.0698,0.0697,0.0697,0.0678,0.0701,0.0701,0.0701,0.0702,0,0.054,0.0544,0.0565,0.0569,0.0573,0.0589,0.0592,0.0603,0.0614,0.062,0.0635,0.064,0.0659,0.0666,0.0677,0.0682,0.0685,0.0691,0.0694,0.0689,0.0688,0.0692,0.0693,0.0701,0.0701,0.0701,0.0701,0,0.052,0.0535,0.0542,0.0561,0.0565,0.0567,0.0583,0.0587,0.0598,0.0604,0.0607,0.0625,0.0633,0.0649,0.0662,0.067,0.0672,0.0677,0.0667,0.0669,0.0664,0.0664,0.0646,0.0644,0.0669,0.0669,0.0669,0,0.0512,0.0515,0.0533,0.0538,0.0545,0.0553,0.0559,0.0575,0.0581,0.0596,0.0598,0.0608,0.0616,0.0629,0.0643,0.0653,0.0659,0.0652,0.066,0.0655,0.0658,0.0657,0.0657,0.065,0.0649,0.0649,0.0649,0,0.0495,0.0502,0.051,0.0521,0.0528,0.0537,0.0547,0.055,0.0568,0.0574,0.0583,0.059,0.0603,0.0612,0.0624,0.0633,0.0643,0.0646,0.0645,0.064,0.0634,0.0637,0.0661,0.0646,0.0646,0.0647,0.0647,0.0647,0.048,0.0483,0.0496,0.0504,0.0513,0.0522,0.0526,0.0538,0.0545,0.0557,0.0566,0.0574,0.0587,0.0604,0.0612,0.0618,0.0623,0.0623,0.0622,0.0622,0.062,0.0633,0.0621,0.0621,0.0621,0.0621,0.0621,0,0.0463,0.0472,0.048,0.0493,0.0499,0.0509,0.052,0.0525,0.0532,0.0543,0.0551,0.056,0.0569,0.0584,0.0594,0.0596,0.0601,0.0598,0.0598,0.0599,0.0615,0.0614,0.0593,0.0593,0.0593,0.0593,0.0593,0.0593,0.0455,0.046,0.0468,0.0478,0.0487,0.0494,0.05,0.0508,0.0516,0.0527,0.0534,0.0543,0.0555,0.0566,0.0574,0.0578,0.0581,0.0576,0.0581,0.0596,0.0598,0.0601,0.06,0.0577,0.0577,0.0565,0.0565,0.0565]}]]